Location: Darmstadt
(49.8706°N, 8.6494°E)
Time: 07:23:16
(UTC+01:00)

Cosmos 2058 Rocket - Pass Details

Date: 31 October 2020
Orbit: 610 x 640 km, 82.5° (Epoch: 03 December)

Event Time Altitude Azimuth Distance (km) Brightness Sun altitude
Rises 18:18:38 0° 193° (SSW) 2,924 6.8 -12.5°
Reaches altitude 10° 18:20:51 10° 195° (SSW) 2,023 6.0 -12.9°
Maximum altitude 18:25:21 75° 280° (W) 669 3.3 -13.6°
Drops below altitude 10° 18:29:54 10° 7° (N) 2,045 5.6 -14.3°
Sets 18:32:10 0° 9° (N) 2,958 6.4 -14.7°
